TimePST,TemperatureF,Dew PointF,Humidity,Sea Level PressureIn,VisibilityMPH,Wind Direction,Wind SpeedMPH,Gust SpeedMPH,PrecipitationIn,Events,Conditions,WindDirDegrees,DateUTC
12:56 AM,45.0,39.0,80,29.68,10.0,SSE,23.0,31.1,N/A,,Overcast,150,2012-11-18 08:56:00
1:56 AM,45.0,39.0,80,29.68,10.0,SSE,20.7,33.4,N/A,,Mostly Cloudy,150,2012-11-18 09:56:00
2:43 AM,44.6,37.4,76,29.67,10.0,SSE,29.9,35.7,N/A,,Mostly Cloudy,150,2012-11-18 10:43:00
2:56 AM,45.0,39.0,80,29.69,10.0,SSE,29.9,40.3,N/A,,Mostly Cloudy,150,2012-11-18 10:56:00
3:56 AM,46.0,39.0,76,29.70,10.0,SSE,24.2,36.8,N/A,,Mostly Cloudy,160,2012-11-18 11:56:00
4:08 AM,46.4,39.2,76,29.69,10.0,SSE,24.2,34.5,N/A,,Overcast,160,2012-11-18 12:08:00
4:56 AM,45.0,39.0,80,29.72,10.0,SSE,23.0,33.4,N/A,,Overcast,160,2012-11-18 12:56:00
5:56 AM,45.0,39.0,80,29.72,10.0,SSE,23.0,31.1,N/A,,Overcast,150,2012-11-18 13:56:00
6:56 AM,46.0,39.9,79,29.71,10.0,SSE,29.9,40.3,N/A,,Overcast,150,2012-11-18 14:56:00
7:56 AM,46.9,39.9,77,29.70,10.0,SSE,32.2,42.6,N/A,,Overcast,150,2012-11-18 15:56:00
8:56 AM,46.9,39.9,77,29.70,10.0,SE,31.1,41.4,N/A,,Mostly Cloudy,140,2012-11-18 16:56:00
9:56 AM,46.9,41.0,80,29.69,10.0,SE,28.8,42.6,N/A,,Mostly Cloudy,140,2012-11-18 17:56:00
10:56 AM,46.9,41.0,80,29.70,10.0,SE,25.3,39.1,N/A,,Mostly Cloudy,140,2012-11-18 18:56:00
11:56 AM,48.0,41.0,77,29.69,10.0,SE,29.9,41.4,N/A,,Mostly Cloudy,140,2012-11-18 19:56:00
12:56 PM,48.0,39.9,74,29.68,10.0,SE,27.6,40.3,N/A,,Overcast,130,2012-11-18 20:56:00
1:56 PM,48.9,39.9,71,29.65,10.0,SE,27.6,39.1,N/A,,Overcast,140,2012-11-18 21:56:00
2:37 PM,48.2,39.2,71,29.61,10.0,SE,26.5,40.3,N/A,,Overcast,130,2012-11-18 22:37:00
2:56 PM,48.9,39.9,71,29.62,10.0,SE,26.5,35.7,N/A,,Overcast,130,2012-11-18 22:56:00
3:56 PM,48.9,39.9,71,29.60,10.0,SE,24.2,35.7,N/A,,Overcast,130,2012-11-18 23:56:00
4:56 PM,48.0,41.0,77,29.56,10.0,SE,27.6,34.5,N/A,,Overcast,130,2012-11-19 00:56:00
5:03 PM,46.4,41.0,81,29.54,10.0,SE,25.3,36.8,0.00,Rain,Light Rain,130,2012-11-19 01:03:00
5:56 PM,46.9,42.1,83,29.53,10.0,ESE,19.6,31.1,0.00,Rain,Light Rain,120,2012-11-19 01:56:00
6:56 PM,46.9,42.1,83,29.51,10.0,SE,28.8,39.1,0.04,Rain,Light Rain,140,2012-11-19 02:56:00
7:56 PM,46.9,42.1,83,29.51,10.0,SE,29.9,44.9,0.01,Rain,Light Rain,130,2012-11-19 03:56:00
8:40 PM,46.4,42.8,87,29.51,10.0,SE,27.6,35.7,0.00,,Overcast,130,2012-11-19 04:40:00
8:56 PM,46.9,42.1,83,29.52,10.0,SE,29.9,36.8,0.00,,Mostly Cloudy,140,2012-11-19 04:56:00
9:26 PM,48.2,42.8,82,29.51,10.0,SE,27.6,39.1,N/A,,Mostly Cloudy,140,2012-11-19 05:26:00
9:56 PM,48.9,43.0,80,29.52,10.0,SE,27.6,38.0,N/A,,Mostly Cloudy,140,2012-11-19 05:56:00
10:24 PM,48.2,42.8,82,29.51,10.0,SE,27.6,38.0,N/A,,Overcast,140,2012-11-19 06:24:00
10:56 PM,48.9,43.0,80,29.52,10.0,SE,26.5,36.8,N/A,,Overcast,140,2012-11-19 06:56:00
11:56 PM,48.9,44.1,83,29.52,10.0,SE,27.6,35.7,N/A,,Overcast,140,2012-11-19 07:56:00